Location: Schommer Observatory
(40.5200°N, 74.4500°W)
Time: 15:03:46
(UTC-04:00)

ISS - Pass Details

Date: 11 October 2017
Orbit: 400 x 408 km, 51.6° (Epoch: 24 October)

Event Time Altitude Azimuth Distance (km) Brightness Sun altitude
Rises 18:50:04 0° 312° (NW) 2,326 0.7 -5.9°
Reaches altitude 10° 18:52:34 10° 331° (NNW) 1,466 -0.7 -6.3°
Maximum altitude 18:55:00 19° 20° (NNE) 1,040 -2.0 -6.8°
Drops below altitude 10° 18:57:27 10° 68° (ENE) 1,466 -1.6 -7.3°
Enters shadow 18:57:43 - 71° (ENE) 1,545 -1.5 -7.3°
